Location: Arboyeti
(42.1122°N, 44.6017°E)
Time: 08:59:32
(UTC+00:00)

Cosmos 2034 Rocket - Pass Details

Date: 19 April 2021
Orbit: 959 x 999 km, 82.9° (Epoch: 05 May)

Event Time Altitude Azimuth Distance (km) Brightness Sun altitude
Rises 16:17:40 0° 184° (S) 3,637 6.8 -6.1°
Reaches altitude 10° 16:20:08 10° 183° (S) 2,699 6.1 -6.6°
Maximum altitude 16:26:19 85° 96° (E) 983 4.0 -7.6°
Drops below altitude 10° 16:32:38 10° 9° (N) 2,744 6.6 -8.7°
Sets 16:35:10 0° 9° (N) 3,703 7.2 -9.1°
